Previsão horária em Cepenyata

Hoje, 2 Agosto, Segunda-feira

Tempo Temperatura Precipitação Vento Pressão Humidade
00:00 +17°C° 0.2 mm 2 m/s 739 mmHg 95%
01:00 +17°C° 0.2 mm 2 m/s 739 mmHg 96%
02:00 +17°C° 0.2 mm 2 m/s 738 mmHg 96%
03:00 +17°C° 0.4 mm 2 m/s 737 mmHg 97%
04:00 +18°C° 0.4 mm 2 m/s 736 mmHg 97%
05:00 +18°C° 0.4 mm 2 m/s 735 mmHg 97%
06:00 +18°C° 0.7 mm 4 m/s 734 mmHg 96%
07:00 +19°C° 0.7 mm 5 m/s 734 mmHg 94%
08:00 +19°C° 0.7 mm 6 m/s 733 mmHg 92%
09:00 +19°C° 1 mm 6 m/s 734 mmHg 93%
10:00 +17°C° 1 mm 6 m/s 735 mmHg 94%
11:00 +16°C° 1 mm 6 m/s 736 mmHg 95%
12:00 +16°C° 0.1 mm 6 m/s 737 mmHg 92%
13:00 +17°C° 0.1 mm 6 m/s 737 mmHg 89%
14:00 +17°C° 0.1 mm 6 m/s 738 mmHg 87%
15:00 +17°C° 0.1 mm 6 m/s 738 mmHg 88%
16:00 +16°C° 0.1 mm 5 m/s 739 mmHg 89%
17:00 +16°C° 0.1 mm 5 m/s 739 mmHg 90%
18:00 +17°C° 0.3 mm 4 m/s 740 mmHg 90%
19:00 +17°C° 0.3 mm 4 m/s 740 mmHg 91%
20:00 +17°C° 0.3 mm 3 m/s 740 mmHg 92%
21:00 +16°C° 0.1 mm 3 m/s 740 mmHg 93%
22:00 +16°C° 0.1 mm 3 m/s 741 mmHg 94%
23:00 +14°C° 0.1 mm 3 m/s 741 mmHg 96%

Amanhã, 3 Agosto, Terça-feira

Tempo Temperatura Precipitação Vento Pressão Humidade
00:00 +13°C° 0 mm 3 m/s 741 mmHg 95%
01:00 +13°C° 0 mm 3 m/s 742 mmHg 95%
02:00 +12°C° 0 mm 3 m/s 742 mmHg 95%
03:00 +12°C° 0 mm 3 m/s 742 mmHg 95%
04:00 +13°C° 0 mm 2 m/s 742 mmHg 95%
05:00 +13°C° 0 mm 2 m/s 742 mmHg 95%
06:00 +13°C° 0 mm 3 m/s 743 mmHg 90%
07:00 +14°C° 0 mm 4 m/s 743 mmHg 85%
08:00 +15°C° 0 mm 5 m/s 743 mmHg 81%
09:00 +17°C° 0 mm 5 m/s 743 mmHg 74%
10:00 +19°C° 0 mm 6 m/s 743 mmHg 67%
11:00 +20°C° 0 mm 6 m/s 744 mmHg 61%
12:00 +21°C° 0 mm 6 m/s 744 mmHg 57%
13:00 +21°C° 0 mm 6 m/s 744 mmHg 54%
14:00 +22°C° 0 mm 6 m/s 744 mmHg 50%
15:00 +21°C° 0.1 mm 5 m/s 744 mmHg 56%
16:00 +21°C° 0.1 mm 5 m/s 744 mmHg 61%
17:00 +20°C° 0.1 mm 5 m/s 744 mmHg 66%
18:00 +19°C° 0.4 mm 4 m/s 744 mmHg 73%
19:00 +17°C° 0.4 mm 3 m/s 745 mmHg 80%
20:00 +16°C° 0.4 mm 2 m/s 745 mmHg 88%
21:00 +15°C° 0 mm 2 m/s 745 mmHg 88%
22:00 +14°C° 0 mm 2 m/s 746 mmHg 89%
23:00 +14°C° 0 mm 2 m/s 746 mmHg 90%

Depois de amanhã, 4 Agosto, Quarta-feira

Tempo Temperatura Precipitação Vento Pressão Humidade
00:00 +13°C° 0 mm 1 m/s 746 mmHg 88%
01:00 +13°C° 0 mm 1 m/s 746 mmHg 87%
02:00 +13°C° 0 mm 1 m/s 746 mmHg 86%
03:00 +13°C° 0 mm 1 m/s 746 mmHg 85%
04:00 +14°C° 0 mm 1 m/s 746 mmHg 84%
05:00 +14°C° 0 mm 1 m/s 746 mmHg 82%
06:00 +15°C° 0 mm 1 m/s 747 mmHg 82%
07:00 +16°C° 0 mm 1 m/s 747 mmHg 81%
08:00 +16°C° 0 mm 1 m/s 747 mmHg 80%
09:00 +18°C° 0.1 mm 2 m/s 747 mmHg 73%
10:00 +20°C° 0.1 mm 2 m/s 747 mmHg 67%
11:00 +21°C° 0.1 mm 2 m/s 747 mmHg 60%
12:00 +23°C° 0.1 mm 2 m/s 747 mmHg 55%
13:00 +24°C° 0.1 mm 2 m/s 747 mmHg 51%
14:00 +25°C° 0.1 mm 3 m/s 747 mmHg 46%
15:00 +24°C° 0 mm 2 m/s 747 mmHg 49%
16:00 +24°C° 0 mm 2 m/s 747 mmHg 52%
17:00 +24°C° 0 mm 1 m/s 746 mmHg 54%
18:00 +21°C° 0 mm 2 m/s 746 mmHg 62%
19:00 +19°C° 0 mm 2 m/s 746 mmHg 70%
20:00 +17°C° 0 mm 2 m/s 746 mmHg 78%
21:00 +16°C° 0 mm 2 m/s 746 mmHg 81%
22:00 +15°C° 0 mm 2 m/s 746 mmHg 83%
23:00 +14°C° 0 mm 3 m/s 747 mmHg 86%

5 Agosto, Quinta-feira

Tempo Temperatura Precipitação Vento Pressão Humidade
00:00 +15°C° 0 mm 2 m/s 746 mmHg 85%
01:00 +14°C° 0 mm 2 m/s 746 mmHg 85%
02:00 +14°C° 0 mm 2 m/s 746 mmHg 84%
03:00 +14°C° 0 mm 2 m/s 746 mmHg 85%
04:00 +14°C° 0 mm 1 m/s 746 mmHg 86%
05:00 +14°C° 0 mm 1 m/s 746 mmHg 86%
06:00 +15°C° 0 mm 1 m/s 746 mmHg 84%
07:00 +17°C° 0 mm 2 m/s 746 mmHg 81%
08:00 +18°C° 0 mm 2 m/s 746 mmHg 78%
09:00 +19°C° 0 mm 3 m/s 746 mmHg 77%
10:00 +19°C° 0 mm 3 m/s 745 mmHg 76%
11:00 +19°C° 0 mm 4 m/s 745 mmHg 75%
12:00 +20°C° 0 mm 4 m/s 745 mmHg 73%
13:00 +21°C° 0 mm 4 m/s 745 mmHg 71%
14:00 +21°C° 0 mm 4 m/s 745 mmHg 69%
15:00 +21°C° 0.1 mm 4 m/s 745 mmHg 72%
16:00 +21°C° 0.1 mm 4 m/s 744 mmHg 75%
17:00 +20°C° 0.1 mm 4 m/s 744 mmHg 78%
18:00 +20°C° 0 mm 3 m/s 744 mmHg 80%
19:00 +19°C° 0 mm 3 m/s 744 mmHg 81%
20:00 +18°C° 0 mm 3 m/s 744 mmHg 83%
21:00 +18°C° 0 mm 3 m/s 743 mmHg 86%
22:00 +17°C° 0 mm 3 m/s 743 mmHg 88%
23:00 +16°C° 0 mm 3 m/s 743 mmHg 90%

6 Agosto, Sexta-feira

Tempo Temperatura Precipitação Vento Pressão Humidade
00:00 +16°C° 0 mm 3 m/s 743 mmHg 93%
01:00 +14°C° 0 mm 3 m/s 742 mmHg 95%
02:00 +13°C° 0 mm 3 m/s 742 mmHg 98%
03:00 +14°C° 0 mm 4 m/s 742 mmHg 97%
04:00 +14°C° 0 mm 4 m/s 741 mmHg 97%
05:00 +14°C° 0 mm 5 m/s 741 mmHg 96%
06:00 +15°C° 0.5 mm 5 m/s 740 mmHg 96%
07:00 +15°C° 0.5 mm 5 m/s 740 mmHg 96%
08:00 +15°C° 0.5 mm 4 m/s 739 mmHg 97%
09:00 +15°C° 3.7 mm 5 m/s 739 mmHg 97%
10:00 +16°C° 3.7 mm 5 m/s 739 mmHg 97%
11:00 +16°C° 3.7 mm 6 m/s 738 mmHg 98%
12:00 +16°C° 1.8 mm 6 m/s 738 mmHg 97%
13:00 +17°C° 1.8 mm 6 m/s 738 mmHg 96%
14:00 +17°C° 1.8 mm 5 m/s 737 mmHg 96%
15:00 +20°C° 0.8 mm 5 m/s 737 mmHg 92%
16:00 +21°C° 0.8 mm 5 m/s 736 mmHg 88%
17:00 +22°C° 0.8 mm 5 m/s 735 mmHg 84%
18:00 +21°C° 0.2 mm 5 m/s 735 mmHg 87%
19:00 +19°C° 0.2 mm 5 m/s 735 mmHg 90%
20:00 +17°C° 0.2 mm 5 m/s 735 mmHg 93%
21:00 +17°C° 0.2 mm 5 m/s 735 mmHg 95%
22:00 +17°C° 0.2 mm 4 m/s 735 mmHg 96%
23:00 +17°C° 0.2 mm 4 m/s 735 mmHg 98%

7 Agosto, Sábado

Tempo Temperatura Precipitação Vento Pressão Humidade
00:00 +16°C° 0.6 mm 5 m/s 736 mmHg 98%
01:00 +16°C° 0.6 mm 5 m/s 736 mmHg 98%
02:00 +16°C° 0.6 mm 6 m/s 737 mmHg 97%
03:00 +16°C° 0.7 mm 6 m/s 737 mmHg 97%
04:00 +16°C° 0.7 mm 6 m/s 738 mmHg 97%
05:00 +15°C° 0.7 mm 6 m/s 739 mmHg 97%
06:00 +16°C° 0.3 mm 6 m/s 740 mmHg 96%
07:00 +16°C° 0.3 mm 6 m/s 740 mmHg 94%
08:00 +16°C° 0.3 mm 5 m/s 741 mmHg 93%
09:00 +17°C° 0.1 mm 5 m/s 742 mmHg 86%
10:00 +20°C° 0.1 mm 5 m/s 742 mmHg 79%
11:00 +22°C° 0.1 mm 5 m/s 743 mmHg 71%
12:00 +22°C° 0.1 mm 5 m/s 743 mmHg 67%
13:00 +23°C° 0.1 mm 5 m/s 743 mmHg 63%
14:00 +25°C° 0.1 mm 5 m/s 744 mmHg 58%
15:00 +25°C° 0.2 mm 4 m/s 744 mmHg 62%
16:00 +25°C° 0.2 mm 3 m/s 744 mmHg 65%
17:00 +25°C° 0.2 mm 3 m/s 745 mmHg 69%
18:00 +23°C° 0.1 mm 2 m/s 745 mmHg 74%
19:00 +20°C° 0.1 mm 2 m/s 745 mmHg 79%
20:00 +20°C° 0.1 mm 1 m/s 746 mmHg 84%
21:00 +19°C° 0 mm 1 m/s 746 mmHg 85%
22:00 +19°C° 0 mm 1 m/s 747 mmHg 86%
23:00 +18°C° 0 mm 1 m/s 747 mmHg 87%
Mostrar mais

Necessitamos do seu Consentimento

A Meteoprog e os seus Fornecedores de Serviços podem armazenar e aceder a dados pessoais como cookies, identificadores do dispositivo ou outras tecnologias semelhantes existentes no seu dispositivo e processar estes dados para personalizar conteúdos e anúncios, assim como funcionalidades nas redes sociais e análise de tráfego.

  • Armazenar e/ou aceder a informações no seu dispositivo

    Os cookies, identificadores do dispositivo ou outras informações podem ser armazenados ou acedidos no seu dispositivo, para os fins acima indicados.

  • Anúncios e conteúdos personalizados, medição de anúncios e conteúdos, dados sobre o público-alvo e desenvolvimento de produtos

    Os anúncios e os conteúdos podem ser personalizados com base num perfil. Podem ser adicionados dados adicionais para uma maior personalização dos anúncios e dos conteúdos. A eficácia dos anúncios e dos conteúdos pode ser medida. Podem ser obtidas informações sobre o público que visualizou os anúncios e os conteúdos. Estes dados podem ser usados para desenvolver ou melhorar sistemas, softwares ou a experiência do utilizador.

Ao clicar em "Eu concordo”, permitirá o uso de cookies, identificadores do dispositivo e web beacons mencionados ou outras tecnologias semelhantes. As configurações do navegador do seu dispositivo podem ser alteradas.

Para certos fins, podem ser invocados interesses legítimos ao invés de consentimento. Pode ler mais informação sobre este assunto na nossa Política de Privacidade e Cookies.